Volver al catálogo

APRIZESAT 4

ActivoComunicacionesSSO
NORAD 35684·PAYLOAD·🇺🇸 United States

Lanzado Jul 29, 2009 desde Baikonur Cosmodrome

Loading…

Próximos Pases (próximas 24 horas)

TLE

ActualizadoSource: Space-Track

Época: Sep 14, 2026, 11:11 UTC

1 35684U 09041D   26257.46614752  .00000514  00000-0  67694-4 0  9993
2 35684  98.1346 334.5374 0043864  33.5344 326.8632 14.83989266924602

Sigue APRIZESAT 4 en tiempo real con AllMySat

Download on the App Store